Location: Cointrin
(46.2167°N, 6.1167°E)
Time: 20:03:44
(UTC+00:00)

Cosmos 1943 Rocket - Pass Details

Date: 08 February 2023
Orbit: 811 x 844 km, 71.0° (Epoch: 22 March)

Event Time Altitude Azimuth Distance (km) Brightness Sun altitude
Rises 18:59:48 0° 338° (NNW) 3,414 5.7 -22.8°
Reaches altitude 10° 19:02:27 10° 346° (NNW) 2,474 4.8 -23.2°
Enters shadow 19:06:46 35° 32° (NNE) 1,333 3.0 -24.0°
